Location: Firdgum
(53.2488°N, 5.5615°E)
Time: 13:10:00
(UTC+00:00)

H-2A R/B - Pass Details

Date: 08 December 2019
Orbit: 501 x 541 km, 97.3° (Epoch: 16 January)

Event Time Altitude Azimuth Distance (km) Brightness Sun altitude
Rises 06:10:35 0° 13° (NNE) 2,618 6.2 -12.1°
Reaches altitude 10° 06:12:40 10° 13° (NNE) 1,731 5.3 -11.9°
Maximum altitude 06:16:24 89° 290° (WNW) 516 2.6 -11.3°
Drops below altitude 10° 06:20:08 10° 195° (SSW) 1,733 5.5 -10.8°
Sets 06:22:14 0° 196° (SSW) 2,620 6.4 -10.5°
